Flag for U.S.A. Weather past 2 weeks in Pocatello, Idaho, U.S.A.

Now
70 °F

Sunny.


Feels Like: 77 °F
Forecast: 60 / 82 °F
Wind: 28 mph from Southwest

Location: Pocatello Regional Airport

Current Time: Jul 24, 2014 at 10:59:22 AM

Latest Report: Jul 24, 2014 at 9:53 AM


Visibility: 10 mi

Pressure: 30.00 "Hg

Humidity: 39%

Dew point: 44 °F

Location of PocatelloLocation

Historic Weather in Pocatello — Graph

°F

Pocatello temperature yesterday

Maximum temperature yesterday: 96 °F (at 4:53 PM)
Minimum temperature yesterday: 57 °F (at 2:53 AM)
Average temperature yesterday: 79 °F

Past Weeks' High & Low Weather Summary

 TemperatureHumidityPressure
High98 °F (Jul 14, 3:53 PM)96% (Jul 15, 5:53 AM)30.26 "Hg (Jul 15, 5:53 AM)
Low51 °F (Jul 17, 5:53 AM)13% (Jul 18, 4:53 PM)29.73 "Hg (Jul 10, 6:53 PM)
Average77 °F39%29.89 "Hg
* Reported Jul 9 8:53 AM — Jul 24 8:53 AM, Pocatello, Weather by CustomWeather, © 2014

Note: Actual official high and low records may vary slightly from our data, if they occured in-between our weather recording intervals... More about our weather records

Advertising

Pocatello weather history for previous 24 hours

 ConditionsComfort  
Time TempWeatherWind HumidityBarometerVisibility
8:53 AM
Jul 24
68 °FSunny.23 mph42%29.98 "Hg10 mi
7:53 AM66 °FClear.20 mph42%29.95 "Hg10 mi
6:53 AM65 °FPassing clouds.18 mph36%29.91 "Hg10 mi
5:53 AM67 °FPassing clouds.16 mph30%29.89 "Hg10 mi
4:53 AM69 °FClear.13 mph29%29.86 "Hg10 mi
3:53 AM71 °FClear.13 mph29%29.84 "Hg10 mi
2:53 AM72 °FClear.13 mph31%29.83 "Hg10 mi
1:53 AM72 °FClear.10 mph29%29.83 "Hg10 mi
12:53 AM73 °FClear.9 mph29%29.82 "Hg10 mi
11:53 PM
Jul 23
74 °FClear.13 mph31%29.81 "Hg10 mi
10:53 PM73 °FSunny.16 mph43%29.82 "Hg10 mi
9:53 PM74 °FSunny.3 mph31%29.79 "Hg10 mi
8:53 PM82 °FPassing clouds.5 mph29%29.78 "Hg10 mi
7:53 PM94 °FPassing clouds.6 mph13%29.78 "Hg10 mi
6:53 PM96 °FPassing clouds.8 mph14%29.80 "Hg10 mi
5:53 PM96 °FPassing clouds.8 mph13%29.81 "Hg10 mi
4:53 PM96 °FPassing clouds.8 mph13%29.86 "Hg10 mi
3:53 PM95 °FSunny.10 mph15%29.88 "Hg10 mi
2:53 PM91 °FSunny.9 mph20%29.94 "Hg10 mi
1:53 PM89 °FSunny.8 mph21%29.96 "Hg10 mi
12:53 PM87 °FSunny.6 mph26%29.98 "Hg10 mi
11:53 AM83 °FSunny.5 mph32%30.01 "Hg10 mi
10:53 AM79 °FSunny.6 mph34%30.04 "Hg10 mi
Weather by CustomWeather, © 2014

See weather overviewHow to use our weather pages